{"data":{"norad_id":58489,"epoch":"2026-09-20T15:50:01.771008Z","epoch_age_seconds":132939,"freshness":"FRESH","line1":"1 58489U 23186S   26263.65974272  .00001025  00000+0  46802-4 0  9996","line2":"2 58489  43.0024  42.6166 0002340 272.5015  87.5569 15.27576255155708","mean_motion":15.27576255,"eccentricity":0.000234,"inclination_deg":43.0024,"raan_deg":42.6166,"arg_perigee_deg":272.5015,"mean_anomaly_deg":87.5569,"bstar":4.6802e-5,"rev_number":15570,"period_min":94.266979817646,"perigee_km":481.45478976929,"apogee_km":484.66583011035,"semimajor_km":6861.1973099398,"source":"CELESTRAK","updated_at":"2026-09-21T09:00:33.902811Z"}}